| time (UTC) | temp F | wind direction | speed MPH | gust MPH | rain 1hr in | rain 24hr in | rain mn in | humidity % | barometer mb |
| 20260508175325 | 65 | 340 | 4.0 | 8.0 | 0.00 | 0.01 | 0.01 | 42 | 1015.6 |
| 20260508174557 | 65 | 245 | 4.0 | 12.0 | 0.00 | 0.01 | 0.01 | 51 | 1015.7 |
| 20260508174056 | 65 | 69 | 3.0 | 12.0 | 0.00 | 0.01 | 0.01 | 50 | 1015.8 |
| 20260508173556 | 65 | 203 | 2.0 | 6.0 | 0.00 | 0.01 | 0.01 | 48 | 1015.9 |
| 20260508173545 | 64 | 12 | 4.0 | 8.0 | 0.00 | 0.01 | 0.01 | 48 | 1016.0 |
| 20260508172557 | 65 | 322 | 4.0 | 8.0 | 0.00 | 0.01 | 0.01 | 47 | 1016.1 |
| 20260508172331 | 65 | 352 | 3.0 | 8.0 | 0.00 | 0.01 | 0.01 | 47 | 1016.3 |
| 20260508171823 | 65 | 358 | 2.0 | 5.0 | 0.00 | 0.01 | 0.01 | 53 | 1016.3 |
| 20260508171056 | 64 | 358 | 3.0 | 10.0 | 0.00 | 0.01 | 0.01 | 46 | 1016.4 |
| 20260508170553 | 64 | 254 | 3.0 | 10.0 | 0.00 | 0.01 | 0.01 | 52 | 1016.4 |
| 20260508170055 | 63 | 343 | 3.0 | 9.0 | 0.00 | 0.01 | 0.01 | 49 | 1016.5 |
| 20260508165548 | 64 | 252 | 4.0 | 9.0 | 0.00 | 0.01 | 0.01 | 49 | 1016.6 |
| 20260508165048 | 63 | 353 | 4.0 | 8.0 | 0.00 | 0.01 | 0.01 | 55 | 1016.7 |
| 20260508164549 | 62 | 324 | 4.0 | 9.0 | 0.00 | 0.01 | 0.01 | 47 | 1016.8 |
| 20260508164319 | 63 | 340 | 5.0 | 9.0 | 0.00 | 0.01 | 0.01 | 55 | 1016.9 |
| 20260508163549 | 62 | 322 | 4.0 | 11.0 | 0.00 | 0.01 | 0.01 | 55 | 1016.9 |
| 20260508163053 | 62 | 339 | 4.0 | 11.0 | 0.00 | 0.01 | 0.01 | 50 | 1017.1 |
| 20260508162557 | 62 | 226 | 4.0 | 8.0 | 0.00 | 0.01 | 0.01 | 52 | 1017.2 |
| 20260508162043 | 63 | 303 | 3.0 | 8.0 | 0.00 | 0.01 | 0.01 | 55 | 1017.3 |
| 20260508161810 | 62 | 314 | 3.0 | 8.0 | 0.00 | 0.01 | 0.01 | 55 | 1017.4 |
| 20260508161310 | 62 | 352 | 4.0 | 8.0 | 0.00 | 0.01 | 0.01 | 58 | 1017.5 |
| 20260508160539 | 61 | 328 | 5.0 | 9.0 | 0.00 | 0.01 | 0.01 | 56 | 1017.5 |
| 20260508160042 | 61 | 276 | 4.0 | 9.0 | 0.00 | 0.01 | 0.01 | 60 | 1017.6 |
| 20260508155804 | 60 | 234 | 3.0 | 7.0 | 0.00 | 0.01 | 0.01 | 60 | 1017.6 |
| 20260508155039 | 60 | 253 | 3.0 | 8.0 | 0.00 | 0.01 | 0.01 | 63 | 1017.7 |
| 20260508154536 | 60 | 128 | 3.0 | 8.0 | 0.00 | 0.01 | 0.01 | 58 | 1017.8 |
| 20260508154036 | 59 | 127 | 3.0 | 7.0 | 0.00 | 0.01 | 0.01 | 61 | 1017.8 |
| 20260508153533 | 59 | 259 | 4.0 | 7.0 | 0.00 | 0.01 | 0.01 | 62 | 1017.9 |
| 20260508153258 | 59 | 269 | 3.0 | 7.0 | 0.00 | 0.01 | 0.01 | 67 | 1017.9 |
| 20260508152534 | 58 | 268 | 3.0 | 7.0 | 0.00 | 0.01 | 0.01 | 66 | 1018.0 |
| 20260508152032 | 58 | 214 | 3.0 | 7.0 | 0.00 | 0.01 | 0.01 | 67 | 1018.0 |
| 20260508151749 | 58 | 353 | 3.0 | 7.0 | 0.00 | 0.01 | 0.01 | 71 | 1018.1 |
| 20260508151032 | 57 | 201 | 3.0 | 7.0 | 0.00 | 0.01 | 0.01 | 74 | 1018.1 |
| 20260508150528 | 57 | 245 | 3.0 | 7.0 | 0.00 | 0.01 | 0.01 | 72 | 1018.2 |
| 20260508150027 | 56 | 299 | 4.0 | 8.0 | 0.00 | 0.01 | 0.01 | 76 | 1018.2 |
| 20260508145528 | 56 | 280 | 4.0 | 8.0 | 0.00 | 0.01 | 0.01 | 79 | 1018.2 |
| 20260508145028 | 56 | 279 | 3.0 | 9.0 | 0.00 | 0.01 | 0.01 | 79 | 1018.2 |
| 20260508144530 | 55 | 233 | 2.0 | 9.0 | 0.00 | 0.01 | 0.01 | 84 | 1018.1 |
| 20260508144028 | 55 | 291 | 2.0 | 6.0 | 0.00 | 0.01 | 0.01 | 86 | 1018.2 |
| 20260508143529 | 55 | 248 | 2.0 | 6.0 | 0.00 | 0.01 | 0.01 | 89 | 1018.2 |
| 20260508143303 | 54 | 47 | 2.0 | 6.0 | 0.00 | 0.01 | 0.01 | 93 | 1018.2 |
| 20260508142527 | 53 | 170 | 2.0 | 6.0 | 0.00 | 0.01 | 0.01 | 95 | 1018.2 |
| 20260508142027 | 52 | 163 | 2.0 | 5.0 | 0.00 | 0.01 | 0.01 | 97 | 1018.2 |
| 20260508141523 | 51 | 30 | 1.0 | 3.0 | 0.00 | 0.01 | 0.01 | 96 | 1018.2 |
| 20260508141035 | 51 | 232 | 1.0 | 3.0 | 0.00 | 0.01 | 0.01 | 97 | 1018.3 |
| 20260508140530 | 51 | 309 | 2.0 | 4.0 | 0.00 | 0.01 | 0.01 | 97 | 1018.3 |
| 20260508140037 | 50 | 278 | 2.0 | 6.0 | 0.00 | 0.01 | 0.01 | 98 | 1018.3 |
| 20260508140026 | 51 | 235 | 2.0 | 4.0 | 0.00 | 0.01 | 0.01 | 97 | 1018.3 |
| 20260508135021 | 50 | 146 | 3.0 | 6.0 | 0.00 | 0.01 | 0.01 | 98 | 1018.4 |
| 20260508134519 | 49 | 326 | 2.0 | 6.0 | 0.00 | 0.01 | 0.01 | 97 | 1018.4 |
| 20260508134019 | 49 | 309 | 2.0 | 6.0 | 0.00 | 0.01 | 0.01 | 97 | 1018.5 |
| 20260508133521 | 49 | 299 | 3.0 | 6.0 | 0.00 | 0.01 | 0.01 | 97 | 1018.4 |
| 20260508133019 | 49 | 212 | 3.0 | 6.0 | 0.00 | 0.01 | 0.01 | 98 | 1018.4 |
| 20260508132519 | 48 | 199 | 1.0 | 6.0 | 0.00 | 0.01 | 0.01 | 97 | 1018.4 |
| 20260508132019 | 48 | 178 | 3.0 | 6.0 | 0.00 | 0.01 | 0.01 | 97 | 1018.3 |
| 20260508131808 | 48 | 209 | 3.0 | 6.0 | 0.00 | 0.01 | 0.01 | 98 | 1018.3 |
| 20260508131019 | 47 | 201 | 2.0 | 6.0 | 0.00 | 0.01 | 0.01 | 98 | 1018.3 |
| 20260508130520 | 47 | 100 | 2.0 | 6.0 | 0.00 | 0.01 | 0.01 | 97 | 1018.3 |
| 20260508130016 | 46 | 86 | 2.0 | 6.0 | 0.00 | 0.01 | 0.01 | 97 | 1018.3 |
| 20260508130007 | 46 | 94 | 2.0 | 6.0 | 0.00 | 0.01 | 0.01 | 97 | 1018.2 |
| 20260508125016 | 46 | 118 | 3.0 | 8.0 | 0.00 | 0.01 | 0.01 | 97 | 1018.2 |
| 20260508124513 | 46 | 99 | 3.0 | 8.0 | 0.00 | 0.01 | 0.01 | 97 | 1018.3 |
| 20260508124014 | 46 | 144 | 4.0 | 8.0 | 0.00 | 0.01 | 0.01 | 97 | 1018.2 |
| 20260508123513 | 45 | 192 | 4.0 | 8.0 | 0.00 | 0.01 | 0.01 | 97 | 1018.1 |
| 20260508123502 | 46 | 152 | 3.0 | 8.0 | 0.00 | 0.01 | 0.01 | 97 | 1018.1 |
| 20260508122512 | 46 | 172 | 3.0 | 6.0 | 0.00 | 0.01 | 0.01 | 97 | 1018.1 |
| 20260508122009 | 45 | 126 | 4.0 | 7.0 | 0.00 | 0.01 | 0.01 | 97 | 1018.1 |
| 20260508121517 | 45 | 119 | 4.0 | 7.0 | 0.00 | 0.01 | 0.01 | 97 | 1018.0 |
| 20260508121014 | 46 | 161 | 2.0 | 6.0 | 0.00 | 0.01 | 0.01 | 97 | 1018.0 |
| 20260508120515 | 46 | 151 | 2.0 | 4.0 | 0.00 | 0.01 | 0.01 | 97 | 1017.9 |
| 20260508120011 | 46 | 92 | 3.0 | 6.0 | 0.00 | 0.01 | 0.01 | 97 | 1017.8 |
| 20260508115511 | 45 | 156 | 4.0 | 7.0 | 0.00 | 0.01 | 0.01 | 97 | 1017.7 |
| 20260508115013 | 45 | 178 | 3.0 | 7.0 | 0.00 | 0.01 | 0.01 | 97 | 1017.7 |
| 20260508114510 | 45 | 151 | 3.0 | 8.0 | 0.00 | 0.02 | 0.01 | 97 | 1017.7 |
| 20260508114008 | 46 | 135 | 3.0 | 8.0 | 0.00 | 0.02 | 0.01 | 97 | 1017.7 |
| 20260508113734 | 46 | 89 | 2.0 | 4.0 | 0.00 | 0.02 | 0.01 | 97 | 1017.5 |
| 20260508113246 | 46 | 167 | 1.0 | 4.0 | 0.00 | 0.02 | 0.01 | 97 | 1017.5 |
| 20260508112744 | 45 | 102 | 1.0 | 4.0 | 0.00 | 0.03 | 0.01 | 97 | 1017.3 |
| 20260508112220 | 45 | 102 | 1.0 | 4.0 | 0.00 | 0.03 | 0.01 | 97 | 1017.2 |
| 20260508111452 | 45 | 101 | 1.0 | 4.0 | 0.00 | 0.03 | 0.01 | 97 | 1017.2 |
| 20260508110950 | 45 | 96 | 1.0 | 2.0 | 0.00 | 0.03 | 0.01 | 97 | 1017.1 |
| 20260508110451 | 45 | 96 | 1.0 | 3.0 | 0.00 | 0.03 | 0.01 | 97 | 1017.1 |
| 20260508105952 | 45 | 96 | 1.0 | 3.0 | 0.00 | 0.03 | 0.01 | 97 | 1016.9 |
| 20260508105446 | 45 | 81 | 1.0 | 2.0 | 0.00 | 0.03 | 0.01 | 97 | 1016.9 |
| 20260508104945 | 45 | 99 | 1.0 | 4.0 | 0.00 | 0.03 | 0.01 | 97 | 1016.8 |
| 20260508104443 | 45 | 109 | 2.0 | 4.0 | 0.00 | 0.03 | 0.01 | 97 | 1016.8 |
| 20260508104207 | 45 | 126 | 2.0 | 3.0 | 0.00 | 0.03 | 0.01 | 97 | 1016.8 |
| 20260508103454 | 45 | 99 | 1.0 | 3.0 | 0.00 | 0.03 | 0.01 | 97 | 1016.6 |
| 20260508102956 | 46 | 118 | 1.0 | 3.0 | 0.00 | 0.03 | 0.01 | 97 | 1016.5 |
| 20260508102449 | 46 | 133 | 2.0 | 6.0 | 0.00 | 0.03 | 0.01 | 97 | 1016.5 |
| 20260508101940 | 46 | 122 | 2.0 | 6.0 | 0.00 | 0.03 | 0.01 | 97 | 1016.5 |
| 20260508101438 | 46 | 85 | 1.0 | 4.0 | 0.00 | 0.03 | 0.01 | 97 | 1016.3 |
| 20260508100938 | 46 | 154 | 0.0 | 2.0 | 0.00 | 0.03 | 0.01 | 97 | 1016.3 |
| 20260508100437 | 46 | 112 | 0.0 | 1.0 | 0.00 | 0.03 | 0.01 | 97 | 1016.3 |
| 20260508100203 | 46 | 112 | 1.0 | 4.0 | 0.00 | 0.03 | 0.01 | 97 | 1016.3 |
| 20260508095444 | 46 | 112 | 1.0 | 4.0 | 0.00 | 0.03 | 0.01 | 97 | 1016.3 |
| 20260508094944 | 46 | 112 | 1.0 | 4.0 | 0.00 | 0.03 | 0.01 | 97 | 1016.2 |
| 20260508094437 | 46 | 108 | 0.0 | 0.0 | 0.00 | 0.03 | 0.01 | 97 | 1016.3 |
| 20260508093940 | 46 | 108 | 0.0 | 0.0 | 0.00 | 0.03 | 0.01 | 97 | 1016.2 |
| 20260508093435 | 46 | 108 | 0.0 | 0.0 | 0.00 | 0.03 | 0.01 | 97 | 1016.2 |
| 20260508092936 | 46 | 108 | 0.0 | 0.0 | 0.00 | 0.03 | 0.01 | 97 | 1016.3 |
| 20260508092430 | 46 | 108 | 0.0 | 0.0 | 0.00 | 0.03 | 0.01 | 97 | 1016.3 |
| 20260508091929 | 46 | 108 | 0.0 | 0.0 | 0.00 | 0.03 | 0.01 | 97 | 1016.3 |
| 20260508091431 | 46 | 108 | 0.0 | 0.0 | 0.00 | 0.03 | 0.01 | 97 | 1016.2 |
| 20260508090925 | 46 | 108 | 0.0 | 0.0 | 0.00 | 0.03 | 0.01 | 97 | 1016.2 |
| 20260508090454 | 46 | 108 | 0.0 | 0.0 | 0.00 | 0.03 | 0.01 | 97 | 1016.1 |
| 20260508090430 | 46 | 108 | 0.0 | 0.0 | 0.00 | 0.03 | 0.01 | 97 | 1016.2 |
| 20260508085906 | 46 | 108 | 0.0 | 0.0 | 0.00 | 0.03 | 0.01 | 97 | 1016.1 |
| 20260508084917 | 45 | 108 | 0.0 | 0.0 | 0.00 | 0.03 | 0.01 | 97 | 1015.9 |
| 20260508084418 | 45 | 108 | 0.0 | 0.0 | 0.00 | 0.03 | 0.01 | 97 | 1016.0 |
| 20260508083914 | 45 | 108 | 0.0 | 0.0 | 0.00 | 0.03 | 0.01 | 97 | 1016.1 |
| 20260508083414 | 45 | 108 | 0.0 | 0.0 | 0.00 | 0.03 | 0.01 | 97 | 1016.0 |
| 20260508082915 | 45 | 108 | 0.0 | 0.0 | 0.00 | 0.03 | 0.01 | 97 | 1016.0 |
| 20260508082415 | 45 | 108 | 0.0 | 0.0 | 0.00 | 0.03 | 0.01 | 97 | 1016.1 |
| 20260508081922 | 44 | 108 | 0.0 | 0.0 | 0.00 | 0.04 | 0.01 | 97 | 1016.0 |
| 20260508081422 | 44 | 108 | 0.0 | 0.0 | 0.00 | 0.04 | 0.01 | 96 | 1016.1 |
| 20260508080916 | 45 | 108 | 0.0 | 0.0 | 0.00 | 0.04 | 0.01 | 96 | 1016.0 |
| 20260508080417 | 45 | 108 | 0.0 | 0.0 | 0.00 | 0.04 | 0.01 | 96 | 1016.0 |
| 20260508080142 | 45 | 108 | 0.0 | 0.0 | 0.00 | 0.04 | 0.01 | 96 | 1016.0 |
| 20260508075414 | 45 | 108 | 0.0 | 0.0 | 0.00 | 0.04 | 0.01 | 96 | 1016.0 |
| 20260508074915 | 45 | 108 | 0.0 | 0.0 | 0.00 | 0.04 | 0.01 | 97 | 1016.0 |
| 20260508074416 | 45 | 108 | 0.0 | 0.0 | 0.00 | 0.04 | 0.01 | 97 | 1015.9 |
| 20260508074134 | 45 | 108 | 0.0 | 0.0 | 0.01 | 0.04 | 0.01 | 96 | 1016.1 |
| 20260508073414 | 45 | 108 | 0.0 | 0.0 | 0.01 | 0.04 | 0.01 | 96 | 1016.1 |
| 20260508073145 | 45 | 108 | 0.0 | 0.0 | 0.01 | 0.04 | 0.01 | 96 | 1016.1 |
| 20260508072413 | 45 | 108 | 0.0 | 0.0 | 0.01 | 0.04 | 0.01 | 96 | 1016.0 |
| 20260508071918 | 45 | 108 | 0.0 | 0.0 | 0.01 | 0.04 | 0.01 | 96 | 1016.0 |
| 20260508071417 | 45 | 108 | 0.0 | 0.0 | 0.01 | 0.04 | 0.01 | 96 | 1016.0 |
| 20260508070918 | 46 | 108 | 0.0 | 0.0 | 0.01 | 0.04 | 0.01 | 96 | 1016.0 |
| 20260508070419 | 46 | 108 | 0.0 | 0.0 | 0.01 | 0.04 | 0.01 | 96 | 1016.0 |
| 20260508065920 | 45 | 108 | 0.0 | 0.0 | 0.01 | 0.04 | 0.01 | 97 | 1016.0 |
| 20260508065639 | 45 | 108 | 0.0 | 0.0 | 0.01 | 0.04 | 0.01 | 96 | 1016.1 |
| 20260508064915 | 45 | 108 | 0.0 | 0.0 | 0.01 | 0.04 | 0.01 | 97 | 1016.2 |
| 20260508064415 | 45 | 108 | 0.0 | 0.0 | 0.01 | 0.04 | 0.01 | 97 | 1016.2 |
| 20260508063913 | 44 | 108 | 0.0 | 0.0 | 0.00 | 0.03 | 0.00 | 96 | 1016.1 |
| 20260508063412 | 44 | 108 | 0.0 | 0.0 | 0.00 | 0.03 | 0.00 | 96 | 1016.1 |
| 20260508062913 | 44 | 108 | 0.0 | 0.0 | 0.00 | 0.03 | 0.00 | 96 | 1016.1 |
| 20260508062408 | 45 | 108 | 0.0 | 0.0 | 0.00 | 0.03 | 0.00 | 96 | 1016.1 |
| 20260508061908 | 45 | 108 | 0.0 | 0.0 | 0.00 | 0.03 | 0.00 | 96 | 1016.1 |
| 20260508061409 | 45 | 108 | 0.0 | 0.0 | 0.00 | 0.03 | 0.00 | 96 | 1016.1 |
| 20260508060906 | 45 | 108 | 0.0 | 0.0 | 0.00 | 0.03 | 0.00 | 96 | 1016.2 |
| 20260508060406 | 44 | 108 | 0.0 | 0.0 | 0.00 | 0.03 | 0.00 | 96 | 1016.2 |
| 20260508055903 | 45 | 108 | 0.0 | 1.0 | 0.00 | 0.03 | 0.00 | 96 | 1016.1 |
| 20260508055402 | 45 | 108 | 0.0 | 1.0 | 0.00 | 0.04 | 0.00 | 96 | 1016.1 |
| 20260508054904 | 45 | 108 | 0.0 | 2.0 | 0.00 | 0.04 | 0.00 | 96 | 1016.1 |
| 20260508054403 | 45 | 108 | 0.0 | 2.0 | 0.00 | 0.04 | 0.00 | 96 | 1016.1 |
| 20260508053904 | 45 | 108 | 0.0 | 2.0 | 0.00 | 0.04 | 0.00 | 96 | 1016.2 |
| 20260508053359 | 45 | 108 | 1.0 | 2.0 | 0.00 | 0.04 | 0.00 | 96 | 1016.2 |
| 20260508052857 | 45 | 108 | 1.0 | 2.0 | 0.00 | 0.04 | 0.00 | 96 | 1016.2 |
| 20260508052355 | 44 | 108 | 1.0 | 3.0 | 0.00 | 0.04 | 0.00 | 96 | 1016.2 |
| 20260508051910 | 44 | 116 | 0.0 | 3.0 | 0.00 | 0.04 | 0.00 | 95 | 1016.2 |
| 20260508051856 | 44 | 108 | 1.0 | 3.0 | 0.00 | 0.04 | 0.00 | 95 | 1016.2 |
| 20260508050854 | 45 | 116 | 0.0 | 1.0 | 0.00 | 0.04 | 0.00 | 96 | 1016.1 |
| 20260508050351 | 45 | 116 | 1.0 | 1.0 | 0.00 | 0.04 | 0.00 | 96 | 1016.1 |
| 20260508050116 | 45 | 116 | 1.0 | 2.0 | 0.00 | 0.04 | 0.00 | 96 | 1016.0 |
| 20260508045355 | 45 | 116 | 1.0 | 2.0 | 0.00 | 0.04 | 0.00 | 95 | 1016.0 |
| 20260508044853 | 45 | 116 | 1.0 | 2.0 | 0.00 | 0.04 | 0.00 | 95 | 1015.9 |
| 20260508044354 | 46 | 116 | 1.0 | 2.0 | 0.00 | 0.04 | 0.00 | 95 | 1015.8 |
| 20260508043847 | 46 | 116 | 1.0 | 2.0 | 0.00 | 0.04 | 0.00 | 95 | 1015.7 |
| 20260508043348 | 47 | 116 | 0.0 | 2.0 | 0.00 | 0.04 | 0.00 | 96 | 1015.7 |
| 20260508042847 | 47 | 116 | 0.0 | 2.0 | 0.00 | 0.04 | 0.00 | 96 | 1015.7 |
| 20260508042345 | 47 | 116 | 0.0 | 0.0 | 0.00 | 0.04 | 0.00 | 96 | 1015.7 |
| 20260508041844 | 47 | 116 | 0.0 | 0.0 | 0.00 | 0.04 | 0.00 | 96 | 1015.7 |
| 20260508041618 | 47 | 116 | 0.0 | 0.0 | 0.00 | 0.04 | 0.00 | 96 | 1015.6 |
| 20260508040842 | 47 | 116 | 0.0 | 2.0 | 0.00 | 0.04 | 0.00 | 96 | 1015.5 |
| 20260508040340 | 47 | 116 | 1.0 | 2.0 | 0.00 | 0.04 | 0.00 | 95 | 1015.6 |
| 20260508035843 | 47 | 116 | 1.0 | 2.0 | 0.00 | 0.04 | 0.04 | 95 | 1015.5 |
| 20260508035340 | 47 | 116 | 0.0 | 2.0 | 0.00 | 0.04 | 0.04 | 96 | 1015.5 |
| 20260508034841 | 47 | 116 | 0.0 | 0.0 | 0.00 | 0.04 | 0.04 | 96 | 1015.4 |
| 20260508034342 | 47 | 116 | 0.0 | 0.0 | 0.00 | 0.04 | 0.04 | 95 | 1015.4 |
| 20260508033841 | 47 | 116 | 0.0 | 0.0 | 0.00 | 0.04 | 0.04 | 95 | 1015.4 |
| 20260508033338 | 47 | 116 | 0.0 | 0.0 | 0.00 | 0.04 | 0.04 | 95 | 1015.4 |
| 20260508032839 | 47 | 116 | 1.0 | 2.0 | 0.00 | 0.04 | 0.04 | 95 | 1015.6 |
| 20260508032341 | 47 | 116 | 1.0 | 2.0 | 0.00 | 0.04 | 0.04 | 95 | 1015.6 |
| 20260508032056 | 47 | 116 | 1.0 | 2.0 | 0.00 | 0.04 | 0.04 | 95 | 1015.5 |
| 20260508031554 | 47 | 116 | 0.0 | 2.0 | 0.00 | 0.04 | 0.04 | 95 | 1015.5 |
| 20260508030838 | 47 | 116 | 1.0 | 2.0 | 0.00 | 0.04 | 0.04 | 95 | 1015.4 |
| 20260508030335 | 47 | 116 | 0.0 | 2.0 | 0.00 | 0.04 | 0.04 | 95 | 1015.4 |
| 20260508030048 | 47 | 116 | 0.0 | 1.0 | 0.00 | 0.04 | 0.04 | 95 | 1015.3 |
| 20260508025336 | 47 | 116 | 0.0 | 0.0 | 0.00 | 0.04 | 0.04 | 95 | 1015.2 |
| 20260508024833 | 47 | 116 | 0.0 | 0.0 | 0.00 | 0.04 | 0.04 | 95 | 1015.1 |
| 20260508024328 | 47 | 116 | 1.0 | 2.0 | 0.00 | 0.04 | 0.04 | 95 | 1015.1 |
| 20260508024057 | 47 | 116 | 2.0 | 2.0 | 0.00 | 0.04 | 0.04 | 95 | 1014.9 |
| 20260508023329 | 47 | 116 | 1.0 | 3.0 | 0.00 | 0.04 | 0.04 | 95 | 1014.9 |
| 20260508022830 | 47 | 116 | 0.0 | 3.0 | 0.00 | 0.04 | 0.04 | 94 | 1014.9 |
| 20260508022555 | 47 | 116 | 0.0 | 0.0 | 0.00 | 0.04 | 0.04 | 94 | 1014.9 |
| 20260508022049 | 47 | 116 | 0.0 | 0.0 | 0.00 | 0.04 | 0.04 | 94 | 1014.8 |
| 20260508021548 | 47 | 116 | 0.0 | 0.0 | 0.00 | 0.04 | 0.04 | 94 | 1014.8 |
| 20260508021106 | 47 | 116 | 0.0 | 0.0 | 0.00 | 0.04 | 0.04 | 94 | 1014.8 |
| 20260508020327 | 48 | 116 | 0.0 | 0.0 | 0.00 | 0.04 | 0.04 | 93 | 1014.8 |
| 20260508015827 | 48 | 123 | 0.0 | 2.0 | 0.00 | 0.05 | 0.04 | 93 | 1014.5 |
| 20260508015328 | 48 | 123 | 0.0 | 2.0 | 0.00 | 0.05 | 0.04 | 94 | 1014.3 |
| 20260508014826 | 48 | 123 | 0.0 | 2.0 | 0.00 | 0.06 | 0.04 | 93 | 1014.4 |
| 20260508014550 | 49 | 123 | 1.0 | 3.0 | 0.00 | 0.07 | 0.04 | 93 | 1014.3 |
| 20260508013826 | 49 | 123 | 1.0 | 3.0 | 0.00 | 0.08 | 0.04 | 92 | 1014.2 |
| 20260508013325 | 49 | 222 | 0.0 | 2.0 | 0.00 | 0.09 | 0.04 | 93 | 1014.1 |
| 20260508012825 | 49 | 222 | 0.0 | 0.0 | 0.00 | 0.09 | 0.04 | 92 | 1014.1 |
| 20260508012331 | 50 | 222 | 0.0 | 0.0 | 0.00 | 0.09 | 0.04 | 92 | 1013.9 |
| 20260508012323 | 50 | 222 | 0.0 | 0.0 | 0.00 | 0.09 | 0.04 | 91 | 1013.9 |
| 20260508011329 | 50 | 222 | 0.0 | 0.0 | 0.00 | 0.09 | 0.04 | 91 | 1013.9 |
| 20260508010828 | 51 | 222 | 0.0 | 0.0 | 0.00 | 0.10 | 0.04 | 91 | 1013.8 |
| 20260508010328 | 51 | 222 | 0.0 | 0.0 | 0.00 | 0.10 | 0.04 | 91 | 1013.7 |
| 20260508005830 | 51 | 222 | 0.0 | 0.0 | 0.00 | 0.10 | 0.04 | 90 | 1013.6 |
| 20260508005329 | 51 | 222 | 0.0 | 0.0 | 0.00 | 0.10 | 0.04 | 90 | 1013.6 |
| 20260508004827 | 52 | 222 | 0.0 | 0.0 | 0.00 | 0.11 | 0.04 | 90 | 1013.6 |
| 20260508004326 | 52 | 222 | 0.0 | 0.0 | 0.00 | 0.12 | 0.04 | 90 | 1013.5 |
| 20260508004048 | 53 | 222 | 0.0 | 0.0 | 0.00 | 0.13 | 0.04 | 89 | 1013.4 |
| 20260508003325 | 53 | 222 | 0.0 | 0.0 | 0.00 | 0.13 | 0.04 | 88 | 1013.3 |
| 20260508002824 | 53 | 222 | 0.0 | 0.0 | 0.00 | 0.13 | 0.04 | 87 | 1013.3 |
| 20260508002604 | 54 | 222 | 0.0 | 0.0 | 0.00 | 0.13 | 0.04 | 87 | 1013.3 |
| 20260508001825 | 55 | 222 | 0.0 | 0.0 | 0.00 | 0.14 | 0.04 | 86 | 1013.2 |
| 20260508001325 | 55 | 222 | 0.0 | 1.0 | 0.00 | 0.14 | 0.04 | 86 | 1013.3 |
| 20260508000827 | 55 | 222 | 0.0 | 1.0 | 0.00 | 0.14 | 0.04 | 84 | 1013.4 |
| 20260508000327 | 56 | 222 | 0.0 | 0.0 | 0.00 | 0.14 | 0.04 | 84 | 1013.3 |
| 20260507235821 | 56 | 222 | 0.0 | 2.0 | 0.00 | 0.14 | 0.04 | 84 | 1013.3 |
| 20260507235319 | 56 | 222 | 1.0 | 2.0 | 0.00 | 0.14 | 0.04 | 84 | 1013.3 |
| 20260507234820 | 56 | 222 | 1.0 | 3.0 | 0.00 | 0.14 | 0.04 | 83 | 1013.3 |
| 20260507234320 | 56 | 222 | 2.0 | 3.0 | 0.00 | 0.14 | 0.04 | 83 | 1013.4 |
| 20260507233819 | 56 | 228 | 2.0 | 4.0 | 0.00 | 0.14 | 0.04 | 83 | 1013.3 |
| 20260507233318 | 56 | 228 | 2.0 | 4.0 | 0.00 | 0.14 | 0.04 | 84 | 1013.3 |
| 20260507232820 | 56 | 224 | 2.0 | 5.0 | 0.00 | 0.14 | 0.04 | 84 | 1013.4 |
| 20260507232317 | 56 | 238 | 2.0 | 5.0 | 0.00 | 0.14 | 0.04 | 83 | 1013.4 |
| 20260507231815 | 56 | 234 | 3.0 | 7.0 | 0.00 | 0.14 | 0.04 | 83 | 1013.5 |
| 20260507231313 | 57 | 199 | 2.0 | 7.0 | 0.00 | 0.14 | 0.04 | 82 | 1013.4 |
| 20260507230818 | 57 | 236 | 2.0 | 5.0 | 0.00 | 0.14 | 0.04 | 82 | 1013.4 |
| 20260507230759 | 57 | 239 | 1.0 | 5.0 | 0.00 | 0.14 | 0.04 | 82 | 1013.5 |
| 20260507230050 | 57 | 195 | 1.0 | 4.0 | 0.00 | 0.14 | 0.04 | 82 | 1013.4 |
| 20260507225539 | 57 | 241 | 1.0 | 4.0 | 0.00 | 0.14 | 0.04 | 82 | 1013.4 |
| 20260507224814 | 57 | 194 | 2.0 | 4.0 | 0.00 | 0.14 | 0.04 | 82 | 1013.5 |
| 20260507224313 | 57 | 235 | 3.0 | 6.0 | 0.00 | 0.14 | 0.04 | 82 | 1013.5 |
| 20260507223814 | 57 | 215 | 3.0 | 6.0 | 0.00 | 0.14 | 0.04 | 82 | 1013.5 |
| 20260507223313 | 57 | 234 | 4.0 | 6.0 | 0.00 | 0.14 | 0.04 | 82 | 1013.4 |
| 20260507222814 | 57 | 197 | 4.0 | 7.0 | 0.00 | 0.14 | 0.04 | 82 | 1013.3 |
| 20260507222313 | 57 | 212 | 4.0 | 7.0 | 0.00 | 0.14 | 0.04 | 81 | 1013.2 |
| 20260507221813 | 57 | 232 | 4.0 | 7.0 | 0.00 | 0.14 | 0.04 | 82 | 1013.1 |
| 20260507221312 | 57 | 211 | 5.0 | 7.0 | 0.00 | 0.14 | 0.04 | 82 | 1013.2 |
| 20260507220811 | 57 | 200 | 4.0 | 7.0 | 0.00 | 0.14 | 0.04 | 81 | 1013.2 |
| 20260507220308 | 58 | 212 | 2.0 | 7.0 | 0.00 | 0.14 | 0.04 | 81 | 1013.1 |
| 20260507220302 | 58 | 216 | 1.0 | 5.0 | 0.00 | 0.14 | 0.04 | 81 | 1013.1 |
| 20260507215539 | 58 | 219 | 2.0 | 5.0 | 0.00 | 0.14 | 0.04 | 80 | 1013.0 |
| 20260507214804 | 58 | 262 | 3.0 | 6.0 | 0.00 | 0.14 | 0.04 | 80 | 1013.0 |
| 20260507214306 | 58 | 199 | 2.0 | 6.0 | 0.00 | 0.14 | 0.04 | 81 | 1013.0 |
| 20260507213804 | 58 | 242 | 3.0 | 6.0 | 0.00 | 0.14 | 0.04 | 81 | 1013.0 |
| 20260507213303 | 58 | 239 | 3.0 | 7.0 | 0.00 | 0.14 | 0.04 | 81 | 1012.9 |
| 20260507212804 | 58 | 204 | 4.0 | 7.0 | 0.00 | 0.14 | 0.04 | 82 | 1012.9 |
| 20260507212753 | 58 | 196 | 4.0 | 8.0 | 0.00 | 0.14 | 0.04 | 84 | 1012.8 |
| 20260507212455 | 57 | 176 | 5.0 | 9.0 | 0.00 | 0.14 | 0.04 | 84 | 1012.9 |
| 20260507211258 | 57 | 205 | 4.0 | 9.0 | 0.00 | 0.14 | 0.04 | 85 | 1013.0 |
| 20260507210759 | 56 | 174 | 3.0 | 6.0 | 0.00 | 0.14 | 0.04 | 86 | 1012.8 |
| 20260507210302 | 56 | 183 | 2.0 | 6.0 | 0.00 | 0.14 | 0.04 | 87 | 1012.8 |
| 20260507210024 | 55 | 147 | 2.0 | 5.0 | 0.00 | 0.14 | 0.04 | 88 | 1012.8 |
| 20260507205306 | 55 | 191 | 3.0 | 5.0 | 0.00 | 0.14 | 0.04 | 87 | 1012.8 |
| 20260507204755 | 55 | 216 | 3.0 | 5.0 | 0.00 | 0.14 | 0.04 | 87 | 1012.8 |
| 20260507204520 | 54 | 143 | 3.0 | 5.0 | 0.00 | 0.14 | 0.04 | 87 | 1012.8 |
| 20260507203755 | 54 | 205 | 2.0 | 5.0 | 0.00 | 0.14 | 0.04 | 87 | 1012.9 |
| 20260507203519 | 54 | 240 | 2.0 | 5.0 | 0.00 | 0.14 | 0.04 | 87 | 1013.0 |
| 20260507202752 | 54 | 247 | 2.0 | 4.0 | 0.00 | 0.14 | 0.04 | 86 | 1013.0 |
| 20260507202248 | 54 | 253 | 2.0 | 4.0 | 0.00 | 0.14 | 0.04 | 86 | 1013.0 |
| 20260507201742 | 54 | 239 | 3.0 | 5.0 | 0.00 | 0.14 | 0.04 | 86 | 1013.0 |
| 20260507201238 | 54 | 232 | 3.0 | 7.0 | 0.00 | 0.14 | 0.04 | 87 | 1013.0 |
| 20260507200738 | 54 | 273 | 2.0 | 7.0 | 0.00 | 0.14 | 0.04 | 86 | 1013.0 |
| 20260507200239 | 54 | 261 | 1.0 | 4.0 | 0.00 | 0.14 | 0.04 | 88 | 1012.9 |
| 20260507195740 | 54 | 212 | 2.0 | 5.0 | 0.00 | 0.14 | 0.04 | 87 | 1012.9 |
| 20260507195500 | 54 | 251 | 3.0 | 5.0 | 0.00 | 0.14 | 0.04 | 87 | 1013.0 |
| 20260507194739 | 54 | 213 | 3.0 | 5.0 | 0.00 | 0.14 | 0.04 | 87 | 1013.0 |
| 20260507194503 | 54 | 237 | 3.0 | 5.0 | 0.00 | 0.14 | 0.04 | 87 | 1012.9 |
| 20260507193738 | 54 | 258 | 3.0 | 4.0 | 0.00 | 0.14 | 0.04 | 86 | 1012.9 |
| 20260507193515 | 54 | 230 | 2.0 | 4.0 | 0.00 | 0.14 | 0.04 | 87 | 1012.8 |
| 20260507192738 | 54 | 227 | 2.0 | 4.0 | 0.00 | 0.14 | 0.04 | 88 | 1012.8 |
| 20260507192238 | 53 | 232 | 2.0 | 3.0 | 0.00 | 0.14 | 0.04 | 88 | 1013.0 |
| 20260507191954 | 53 | 240 | 3.0 | 4.0 | 0.00 | 0.14 | 0.04 | 87 | 1013.0 |
| 20260507191239 | 53 | 270 | 3.0 | 5.0 | 0.00 | 0.14 | 0.04 | 87 | 1013.1 |
| 20260507190740 | 53 | 255 | 1.0 | 5.0 | 0.00 | 0.14 | 0.04 | 89 | 1013.1 |
| 20260507190237 | 53 | 258 | 1.0 | 4.0 | 0.00 | 0.14 | 0.04 | 88 | 1013.1 |
| 20260507185959 | 53 | 246 | 1.0 | 4.0 | 0.00 | 0.14 | 0.04 | 89 | 1013.1 |
| 20260507185235 | 53 | 241 | 2.0 | 4.0 | 0.00 | 0.14 | 0.04 | 89 | 1013.3 |
| 20260507185005 | 53 | 250 | 1.0 | 6.0 | 0.00 | 0.14 | 0.04 | 91 | 1013.4 |
| 20260507184849 | 53 | 259 | 2.0 | 6.0 | 0.00 | 0.14 | 0.04 | 90 | 1013.4 |
| 20260507183735 | 52 | 257 | 1.0 | 4.0 | 0.00 | 0.14 | 0.04 | 91 | 1013.4 |
| 20260507183236 | 52 | 221 | 2.0 | 5.0 | 0.00 | 0.14 | 0.04 | 91 | 1013.4 |
| 20260507183005 | 52 | 283 | 2.0 | 5.0 | 0.00 | 0.14 | 0.04 | 92 | 1013.5 |
| 20260507182234 | 52 | 268 | 1.0 | 3.0 | 0.00 | 0.14 | 0.04 | 93 | 1013.4 |
| 20260507181734 | 52 | 325 | 2.0 | 4.0 | 0.00 | 0.14 | 0.04 | 92 | 1013.4 |
| 20260507181233 | 52 | 309 | 2.0 | 5.0 | 0.00 | 0.14 | 0.04 | 92 | 1013.5 |
| 20260507180732 | 52 | 354 | 2.0 | 5.0 | 0.00 | 0.14 | 0.04 | 92 | 1013.5 |
| 20260507180233 | 52 | 240 | 2.0 | 5.0 | 0.00 | 0.14 | 0.04 | 92 | 1013.5 |
| 20260507180006 | 52 | 291 | 3.0 | 7.0 | 0.00 | 0.14 | 0.04 | 93 | 1013.5 |